Voltar ao catálogo

VELOX-AM

LostCiênciaVLEO
NORAD 57482·PAYLOAD·🇸🇬 Singapore

Lançado Jul 30, 2023 de Satish Dhawan Space Centre

Loading…

Próximas Passagens (próximas 24 horas)

TLE

ObsoletoSource: Space-Track

Época: Jan 10, 2024, 19:19 UTC

1 57482U 23109B   24010.80486117  .00011208  00000-0  52712-3 0  9995
2 57482   5.0045 110.9764 0011546 327.6281  32.3119 15.15302227 25000

Acompanhe VELOX-AM em tempo real com AllMySat

Download on the App Store